HIMAWARI-8 (40267 NORAD) Tracking and Keplerian Element Data

This shows tracking and keplerian element data for the satellite.

Feedback or suggestion? Click here.




ElementValue
Catalog40267
NameHIMAWARI-8
Epoch Orbit3545
Epoch Day160.1449398
Epoch Year2024
RAAN130.11
Inclination0.0662
Eccentricity6.79E-05
Argument of Perigee318.801
Mean Anonmoly0.9538
Mean Motion1.00271344
Decay Rate-2.76E-06
L11 40267U 14060A 24160.14493980 -.00000276 00000+0 00000+0 0 9995
L22 40267 0.0662 130.1100 0000679 318.8010 0.9538 1.00271344 35458



Live tracking and technical data element details for HIMAWARI-8 (NORAD 40267). HIMAWARI-8 can be tracked NOW for your location showing map with azimuth and elevation plus other details from your city location.







IsCatalogInMostPopularTable: catalog: 40267, numindb: 657
Update: records affected: 1



GetName: 40267 HIMAWARI-8

Hit Count: updated at: Mon, 17 Jun 2024 22:04:32 GMT